Location: Edinburgh
(55.9500°N, 3.1600°W)
Time: 07:07:12
(UTC+01:00)

ISS - Pass Details

Date: 09 October 2017
Orbit: 400 x 408 km, 51.6° (Epoch: 24 October)

Event Time Altitude Azimuth Distance (km) Brightness Sun altitude
Rises 20:55:13 0° 272° (W) 2,330 1.3 -21.3°
Reaches altitude 10° 20:57:53 10° 249° (WSW) 1,469 -0.4 -21.7°
Enters shadow 20:59:48 15° 213° (SSW) 1,188 -1.4 -21.9°
